[[{"header":{"parameterUnit":"m.s-1","parameterCategory":1,"la1":30.2991,"la2":30.254,"lo1":-89.0895,"lo2":-89.0444,"dy":0.0017,"dx":0.0017,"nx":28,"ny":28,"refTime":"2025-07-06T09:00:00:Z","depth":0,"parameterNumber":2,"parameterNumberName":"U-component_of_WINDS"},"data":[0,0,0,0,0,0,0,0,0,0,0,0,0,0,0,0,0,0,0,0,0,0,0,0,0,0,0,0,0,0,0,0,0,0,0,0,0,0,0,0,0,0,0,0,0,0,0,0,0,0,0,0,0,0,0,0,0,0,1.1229,1.1231,0,1.134,1.1341,1.1342,1.139,1.139,1.139,1.1389,1.1509,1.1513,1.1516,0,0,0,0,0,0,0,0,0,0,0,0,0,1.1067,1.107,1.1229,1.1231,1.1232,1.1339,1.1341,1.1343,1.139,1.139,1.139,1.1389,1.1508,1.1512,1.1516,0,0,0,0,0,0,0,0,0,0,0,0,0,1.1153,1.107,1.1229,1.1269,1.1273,1.1339,1.1341,1.1343,1.139,1.139,1.1389,1.1389,1.1507,1.1512,1.1517,1.1554,0,0,1.1532,1.1535,0,0,0,0,0,0,0,0,1.1148,1.1159,1.1261,1.1266,1.1271,1.1351,1.1328,1.1414,1.139,1.1346,1.1389,1.1389,1.1457,1.1466,1.1488,1.156,1.1565,1.1533,1.1536,1.1538,1.154,0,0,0,0,0,0,0,1.1142,1.1155,1.1273,1.1263,1.1269,1.1283,1.1295,1.1344,1.1402,1.135,1.1353,1.1365,1.146,1.1483,1.1491,1.1567,1.1533,1.1537,1.154,1.1542,1.1676,1.1676,0,0,0,0,0,0,1.1129,1.115,1.127,1.1277,1.1208,1.1286,1.13,1.1326,1.1402,1.1413,1.1366,1.1367,1.1474,1.1485,1.1496,1.1544,1.1538,1.1543,1.1546,1.1675,1.1676,1.1676,0,0,0,0,0,0,1.1125,1.1139,1.1265,1.1214,1.1231,1.1289,1.1318,1.1328,1.1351,1.1414,1.1425,1.1378,1.1475,1.1488,1.1539,1.1549,1.1545,1.155,1.1674,1.1675,1.1676,1.1642,0,0,0,0,0,0,1.112,1.1137,1.115,1.1214,1.1234,1.1304,1.1319,1.133,1.1359,1.1362,1.1428,1.1439,1.1476,1.1531,1.1544,1.1556,1.1554,1.1674,1.1675,1.1676,1.1642,1.1641,1.164,0,0,0,0,0,1.1114,1.1138,1.1151,1.1165,1.1251,1.1305,1.1316,1.1356,1.1359,1.1374,1.1414,1.1437,1.1546,1.1536,1.1551,1.1565,1.1673,1.1675,1.1676,1.1643,1.1641,1.164,0,0,0,0,0,0,1.1077,1.1147,1.1162,1.1206,1.1249,1.1313,1.1332,1.1353,1.1398,1.1399,1.1449,1.1463,1.151,1.1543,1.153,1.1605,1.1612,1.1616,1.1582,1.1581,1.158,1.1571,1.1558,0,0,0,0,0,1.1073,1.1109,1.1169,1.1203,1.1223,1.1274,1.1299,1.1325,1.1373,1.1392,1.1436,1.1483,1.1528,1.1556,1.1601,1.1647,1.1663,1.1664,1.1663,1.1662,1.1666,1.1693,1.1695,1.168,1.168,1.168,0,0,1.1067,1.111,1.113,1.1196,1.1232,1.127,1.1289,1.1328,1.1358,1.1399,1.1448,1.1482,1.1538,1.1586,1.161,1.1615,1.1673,1.1664,1.1662,1.1666,1.1695,1.1696,1.1697,1.1681,1.168,1.168,0,0,1.1075,1.111,1.1142,1.1177,1.1231,1.1264,1.1272,1.1333,1.1356,1.1406,1.1438,1.1475,1.1551,1.1589,1.1619,1.1641,1.1664,1.1655,1.165,1.1676,1.1678,1.1679,1.1687,1.169,1.1658,1.1658,1.1658,0,1.1061,1.1117,1.1156,1.1193,1.1222,1.1259,1.1292,1.1326,1.1392,1.1413,1.1417,1.1513,1.1553,1.1611,1.1616,1.1639,1.1651,1.1647,1.1674,1.1676,1.1677,1.1686,1.1689,1.1656,1.1656,1.1656,1.1657,0,1.1097,1.1136,1.1156,1.1216,1.1247,1.1283,1.1329,1.1357,1.1381,1.1415,1.1466,1.1516,1.1571,1.1587,1.1612,1.1649,1.1651,1.1664,1.1672,1.1676,1.1686,1.1689,1.1654,1.1654,1.1655,1.1655,0,0,1.1084,1.1165,1.1172,1.12,1.1262,1.1294,1.1332,1.1384,1.1407,1.1452,1.1486,1.1549,1.1562,1.1595,1.1625,1.1648,1.1663,1.1659,1.1661,1.1658,1.1708,1.1698,1.1701,1.1679,1.1679,1.168,1.1704,0,1.1101,1.1167,1.1204,1.1256,1.1293,1.1328,1.1362,1.1405,1.1437,1.1475,1.1513,1.1557,1.157,1.159,1.1615,1.1656,1.1674,1.1655,1.1713,1.1714,1.1697,1.1706,1.1695,1.1714,1.1707,1.1708,1.1708,0,1.1128,1.117,1.1225,1.1283,1.13,1.1328,1.1379,1.1415,1.1465,1.1487,1.1524,1.1553,1.1597,1.1601,1.1663,1.1649,1.1675,1.1699,1.1701,1.1708,1.1711,1.1713,1.1722,1.1724,1.1714,1.1714,1.1713,0,1.1113,1.1184,1.1226,1.1249,1.1317,1.1337,1.1367,1.1416,1.1445,1.1491,1.151,1.1561,1.1589,1.1629,1.1672,1.1671,1.173,1.1737,1.1751,1.175,1.1762,1.176,1.1775,1.1778,1.1778,1.1778,1.1778,0,1.1128,1.116,1.122,1.1246,1.1284,1.1327,1.1364,1.1397,1.1441,1.1476,1.1511,1.1543,1.1597,1.1637,1.1672,1.1718,1.1731,1.1751,1.176,1.1748,1.1745,1.1766,1.1766,1.1779,1.1779,1.1779,1.1778,0,1.1117,1.1158,1.1207,1.1267,1.1283,1.1308,1.1361,1.1389,1.1423,1.1467,1.148,1.1535,1.1583,1.163,1.1696,1.1719,1.1765,1.1777,1.1747,1.1752,1.1763,1.1762,1.1792,1.1798,1.1796,1.1796,1.1796,0,1.1124,1.1149,1.1211,1.1236,1.1264,1.1304,1.1333,1.1377,1.1406,1.1465,1.1486,1.1537,1.158,1.1656,1.1704,1.1754,1.1768,1.1775,1.1776,1.1763,1.1768,1.1766,1.1769,1.1773,1.1773,1.1773,1.1773,0,1.1131,1.115,1.1189,1.1235,1.1269,1.1308,1.1349,1.1368,1.1421,1.1452,1.1501,1.1534,1.16,1.1651,1.1707,1.1741,1.1766,1.1772,1.1778,1.1766,1.1748,1.1758,1.1745,1.1771,1.1771,1.1772,1.1772,1.1772,1.1129,1.1153,1.1201,1.1244,1.1279,1.1316,1.1345,1.1382,1.1423,1.1478,1.1503,1.1552,1.1604,1.1681,1.1714,1.1755,1.1761,1.177,1.1772,1.1774,1.1771,1.1741,1.1766,1.1766,1.1766,1.1766,1.1766,0,1.1138,1.117,1.1209,1.1264,1.1298,1.1317,1.1364,1.1392,1.1434,1.1478,1.1519,1.1575,1.1625,1.1675,1.1728,1.1751,1.1764,1.1763,1.1762,1.177,1.1762,1.1752,1.1752,1.1752,1.1752,1.1752,1.1752,1.1752,1.1147,1.1189,1.1213,1.1274,1.1307,1.1353,1.1378,1.1414,1.1449,1.151,1.155,1.1582,1.1629,1.1686,1.1732,1.1746,1.1764,1.176,1.1777,1.177,1.177,1.1771,1.1762,1.1763,1.1763,1.1782,1.1782,1.1782]},{"header":{"parameterUnit":"m.s-1","parameterCategory":1,"la1":30.2991,"la2":30.254,"lo1":-89.0895,"lo2":-89.0444,"dy":0.0017,"dx":0.0017,"nx":28,"ny":28,"refTime":"2025-07-06T09:00:00:Z","depth":0,"parameterNumber":3,"parameterNumberName":"V-component_of_WINDS"},"data":[0,0,0,0,0,0,0,0,0,0,0,0,0,0,0,0,0,0,0,0,0,0,0,0,0,0,0,0,0,0,0,0,0,0,0,0,0,0,0,0,0,0,0,0,0,0,0,0,0,0,0,0,0,0,0,0,0,0,4.6647,4.6647,0,4.6644,4.6643,4.6643,4.6621,4.662,4.662,4.6619,4.6615,4.6615,4.6616,0,0,0,0,0,0,0,0,0,0,0,0,0,4.6633,4.6633,4.6647,4.6647,4.6647,4.6644,4.6643,4.6643,4.6621,4.662,4.662,4.6619,4.6615,4.6615,4.6616,0,0,0,0,0,0,0,0,0,0,0,0,0,4.6635,4.6633,4.6647,4.6635,4.6634,4.6644,4.6643,4.6643,4.6621,4.662,4.662,4.6619,4.6615,4.6615,4.6616,4.6636,0,0,4.6618,4.6618,0,0,0,0,0,0,0,0,4.6635,4.6635,4.6637,4.6636,4.6635,4.6632,4.6637,4.6641,4.6621,4.6626,4.6619,4.6618,4.6621,4.6621,4.6622,4.6636,4.6635,4.6618,4.6618,4.6618,4.6618,0,0,0,0,0,0,0,4.6635,4.6635,4.6645,4.6637,4.6636,4.663,4.6629,4.6637,4.6628,4.6626,4.6624,4.6624,4.662,4.6622,4.6622,4.6635,4.6618,4.6618,4.6619,4.6619,4.6665,4.6666,0,0,0,0,0,0,4.6636,4.6635,4.6645,4.6645,4.6633,4.6631,4.663,4.6634,4.6628,4.6626,4.6625,4.6623,4.6621,4.6621,4.6622,4.6645,4.6618,4.6619,4.6619,4.6664,4.6665,4.6666,0,0,0,0,0,0,4.6636,4.6637,4.6646,4.664,4.6641,4.6632,4.6636,4.6634,4.6635,4.6627,4.6625,4.6628,4.6621,4.6621,4.6633,4.6644,4.6619,4.662,4.6663,4.6665,4.6666,4.6691,0,0,0,0,0,0,4.6636,4.6637,4.6645,4.664,4.6641,4.6657,4.6637,4.6634,4.6637,4.6634,4.663,4.6628,4.662,4.6632,4.6633,4.6645,4.662,4.6662,4.6664,4.6665,4.6689,4.6693,4.6696,0,0,0,0,0,4.6635,4.6652,4.6645,4.6647,4.665,4.6657,4.6658,4.6648,4.6638,4.6645,4.664,4.6628,4.6643,4.6633,4.6635,4.6646,4.6661,4.6663,4.6665,4.6687,4.6692,4.6696,0,0,0,0,0,0,4.6657,4.6651,4.6644,4.6659,4.6659,4.6654,4.6663,4.6653,4.6656,4.6654,4.6641,4.664,4.6654,4.6651,4.6641,4.6666,4.665,4.6653,4.6667,4.6671,4.6675,4.6675,4.6621,0,0,0,0,0,4.6664,4.6671,4.6665,4.6679,4.6679,4.6671,4.6674,4.6667,4.6666,4.6665,4.6661,4.6661,4.6665,4.6668,4.6672,4.6689,4.6688,4.6698,4.6701,4.6705,4.6706,4.6716,4.672,4.6673,4.6673,4.6673,0,0,4.6678,4.6675,4.668,4.6683,4.6682,4.6689,4.6671,4.6679,4.6684,4.6666,4.6677,4.6674,4.6673,4.6687,4.6694,4.6686,4.672,4.6707,4.671,4.671,4.6718,4.6723,4.6727,4.6674,4.6674,4.6674,0,0,4.6706,4.6705,4.6717,4.6717,4.6716,4.671,4.6714,4.671,4.6707,4.6718,4.6705,4.6711,4.6719,4.6718,4.6719,4.6749,4.6738,4.675,4.6769,4.6778,4.6782,4.6785,4.6796,4.68,4.6752,4.6753,4.6753,0,4.6723,4.6733,4.6724,4.6733,4.6735,4.6721,4.6732,4.6733,4.6733,4.6734,4.6726,4.6736,4.6733,4.6748,4.6755,4.6757,4.6759,4.675,4.6782,4.6786,4.6788,4.6798,4.6802,4.6754,4.6754,4.6754,4.6754,0,4.6754,4.6762,4.6771,4.6773,4.6776,4.6786,4.6779,4.6783,4.6776,4.6771,4.6783,4.678,4.6783,4.6786,4.6779,4.68,4.6795,4.6785,4.6769,4.6795,4.6804,4.6807,4.6756,4.6756,4.6755,4.6755,0,0,4.6795,4.6792,4.6796,4.6797,4.6795,4.6801,4.6811,4.6814,4.6818,4.6819,4.6827,4.6835,4.6825,4.6826,4.6819,4.6827,4.6851,4.6816,4.6816,4.6822,4.6874,4.6882,4.6886,4.6845,4.6845,4.6846,4.6874,0,4.6822,4.6839,4.6832,4.685,4.6857,4.6844,4.6852,4.6852,4.6849,4.6854,4.685,4.6856,4.6843,4.6844,4.6851,4.6847,4.6861,4.6845,4.6852,4.6852,4.6852,4.6891,4.6899,4.6926,4.6878,4.6878,4.6879,0,4.6855,4.6859,4.6878,4.6876,4.6879,4.6887,4.689,4.6895,4.6895,4.6892,4.6894,4.6885,4.6895,4.688,4.6893,4.6882,4.6884,4.6883,4.6883,4.6883,4.6866,4.6891,4.6934,4.6938,4.6884,4.6884,4.6883,0,4.6883,4.6892,4.6905,4.6906,4.6904,4.691,4.691,4.6909,4.6912,4.6915,4.6917,4.692,4.6922,4.6925,4.6918,4.6908,4.6932,4.6916,4.6929,4.693,4.6934,4.6934,4.6977,4.6937,4.6937,4.6937,4.6937,0,4.6913,4.6925,4.6917,4.6925,4.6938,4.693,4.6943,4.6941,4.6941,4.6948,4.6937,4.6944,4.6934,4.6939,4.6934,4.6945,4.6946,4.6944,4.6942,4.6945,4.6945,4.6946,4.6944,4.6938,4.6937,4.6937,4.6937,0,4.6946,4.6941,4.6954,4.6952,4.6952,4.6962,4.696,4.6967,4.6963,4.6972,4.6974,4.6968,4.6974,4.6967,4.6973,4.6969,4.6985,4.698,4.6985,4.6984,4.6997,4.6996,4.7042,4.7048,4.7004,4.7004,4.7005,0,4.6965,4.6974,4.6974,4.6978,4.6979,4.6986,4.6989,4.6982,4.6985,4.6987,4.6994,4.7,4.7003,4.7014,4.701,4.7014,4.701,4.7026,4.701,4.7013,4.701,4.701,4.701,4.7029,4.7029,4.703,4.703,0,4.7,4.6998,4.7003,4.7009,4.7013,4.7017,4.7019,4.7024,4.7016,4.7021,4.7028,4.7031,4.7037,4.7043,4.7047,4.7046,4.7037,4.7035,4.7038,4.7041,4.7043,4.7042,4.6993,4.7034,4.7034,4.7033,4.7033,4.7033,4.7026,4.7034,4.7036,4.7043,4.7044,4.7047,4.7054,4.7052,4.7058,4.7063,4.7058,4.7067,4.7067,4.7071,4.7071,4.7077,4.7071,4.7075,4.7076,4.7078,4.708,4.7043,4.7078,4.7078,4.7078,4.7078,4.7078,0,4.7061,4.7062,4.7068,4.7073,4.7079,4.7071,4.7074,4.7079,4.7087,4.7088,4.7093,4.7101,4.7107,4.7104,4.7109,4.7115,4.7111,4.7116,4.7116,4.7116,4.7086,4.7082,4.7119,4.7119,4.7119,4.7119,4.7119,4.7119,4.7079,4.7092,4.7091,4.7105,4.7105,4.7114,4.7116,4.7119,4.712,4.7131,4.7136,4.7134,4.7134,4.7139,4.7144,4.7143,4.7145,4.7153,4.715,4.7122,4.7118,4.7114,4.7111,4.7153,4.7153,4.718,4.718,4.718]}]]